Index of /20260504/WXO-DD/model_rdps/10km/12/064
Name Last modified Size Description
Parent Directory -
20260504T12Z_MSC_RDPS_AbsoluteVorticity_IsbL-0250_RLatLon0.09_PT064H.grib2 2026-05-04 15:05 596K
20260504T12Z_MSC_RDPS_AbsoluteVorticity_IsbL-0500_RLatLon0.09_PT064H.grib2 2026-05-04 15:05 556K
20260504T12Z_MSC_RDPS_AbsoluteVorticity_IsbL-0700_RLatLon0.09_PT064H.grib2 2026-05-04 15:05 609K
20260504T12Z_MSC_RDPS_AbsoluteVorticity_IsbL-0850_RLatLon0.09_PT064H.grib2 2026-05-04 15:05 775K
20260504T12Z_MSC_RDPS_AirTemp_AGL-120m_RLatLon0.09_PT064H.grib2 2026-05-04 15:05 367K
20260504T12Z_MSC_RDPS_AirTemp_AGL-2m_RLatLon0.09_PT064H.grib2 2026-05-04 15:05 621K
20260504T12Z_MSC_RDPS_AirTemp_AGL-40m_RLatLon0.09_PT064H.grib2 2026-05-04 15:05 384K
20260504T12Z_MSC_RDPS_AirTemp_AGL-80m_RLatLon0.09_PT064H.grib2 2026-05-04 15:05 373K
20260504T12Z_MSC_RDPS_AirTemp_IsbL-0001_RLatLon0.09_PT064H.grib2 2026-05-04 15:05 298K
20260504T12Z_MSC_RDPS_AirTemp_IsbL-0005_RLatLon0.09_PT064H.grib2 2026-05-04 15:05 287K
20260504T12Z_MSC_RDPS_AirTemp_IsbL-0010_RLatLon0.09_PT064H.grib2 2026-05-04 15:05 387K
20260504T12Z_MSC_RDPS_AirTemp_IsbL-0020_RLatLon0.09_PT064H.grib2 2026-05-04 15:05 318K
20260504T12Z_MSC_RDPS_AirTemp_IsbL-0030_RLatLon0.09_PT064H.grib2 2026-05-04 15:05 334K
20260504T12Z_MSC_RDPS_AirTemp_IsbL-0050_RLatLon0.09_PT064H.grib2 2026-05-04 15:05 310K
20260504T12Z_MSC_RDPS_AirTemp_IsbL-0100_RLatLon0.09_PT064H.grib2 2026-05-04 15:05 419K
20260504T12Z_MSC_RDPS_AirTemp_IsbL-0150_RLatLon0.09_PT064H.grib2 2026-05-04 15:05 407K
20260504T12Z_MSC_RDPS_AirTemp_IsbL-0175_RLatLon0.09_PT064H.grib2 2026-05-04 15:05 403K
20260504T12Z_MSC_RDPS_AirTemp_IsbL-0200_RLatLon0.09_PT064H.grib2 2026-05-04 15:05 409K
20260504T12Z_MSC_RDPS_AirTemp_IsbL-0225_RLatLon0.09_PT064H.grib2 2026-05-04 15:05 412K
20260504T12Z_MSC_RDPS_AirTemp_IsbL-0250_RLatLon0.09_PT064H.grib2 2026-05-04 15:05 419K
20260504T12Z_MSC_RDPS_AirTemp_IsbL-0275_RLatLon0.09_PT064H.grib2 2026-05-04 15:05 398K
20260504T12Z_MSC_RDPS_AirTemp_IsbL-0300_RLatLon0.09_PT064H.grib2 2026-05-04 15:05 405K
20260504T12Z_MSC_RDPS_AirTemp_IsbL-0350_RLatLon0.09_PT064H.grib2 2026-05-04 15:05 420K
20260504T12Z_MSC_RDPS_AirTemp_IsbL-0400_RLatLon0.09_PT064H.grib2 2026-05-04 15:05 422K
20260504T12Z_MSC_RDPS_AirTemp_IsbL-0450_RLatLon0.09_PT064H.grib2 2026-05-04 15:05 429K
20260504T12Z_MSC_RDPS_AirTemp_IsbL-0500_RLatLon0.09_PT064H.grib2 2026-05-04 15:05 439K
20260504T12Z_MSC_RDPS_AirTemp_IsbL-0550_RLatLon0.09_PT064H.grib2 2026-05-04 15:05 420K
20260504T12Z_MSC_RDPS_AirTemp_IsbL-0600_RLatLon0.09_PT064H.grib2 2026-05-04 15:05 437K
20260504T12Z_MSC_RDPS_AirTemp_IsbL-0650_RLatLon0.09_PT064H.grib2 2026-05-04 15:05 450K
20260504T12Z_MSC_RDPS_AirTemp_IsbL-0700_RLatLon0.09_PT064H.grib2 2026-05-04 15:05 476K
20260504T12Z_MSC_RDPS_AirTemp_IsbL-0750_RLatLon0.09_PT064H.grib2 2026-05-04 15:05 514K
20260504T12Z_MSC_RDPS_AirTemp_IsbL-0800_RLatLon0.09_PT064H.grib2 2026-05-04 15:05 446K
20260504T12Z_MSC_RDPS_AirTemp_IsbL-0850_RLatLon0.09_PT064H.grib2 2026-05-04 15:05 495K
20260504T12Z_MSC_RDPS_AirTemp_IsbL-0875_RLatLon0.09_PT064H.grib2 2026-05-04 15:05 515K
20260504T12Z_MSC_RDPS_AirTemp_IsbL-0900_RLatLon0.09_PT064H.grib2 2026-05-04 15:05 522K
20260504T12Z_MSC_RDPS_AirTemp_IsbL-0925_RLatLon0.09_PT064H.grib2 2026-05-04 15:05 520K
20260504T12Z_MSC_RDPS_AirTemp_IsbL-0950_RLatLon0.09_PT064H.grib2 2026-05-04 15:05 515K
20260504T12Z_MSC_RDPS_AirTemp_IsbL-0970_RLatLon0.09_PT064H.grib2 2026-05-04 15:05 509K
20260504T12Z_MSC_RDPS_AirTemp_IsbL-0985_RLatLon0.09_PT064H.grib2 2026-05-04 15:05 498K
20260504T12Z_MSC_RDPS_AirTemp_IsbL-1000_RLatLon0.09_PT064H.grib2 2026-05-04 15:05 478K
20260504T12Z_MSC_RDPS_AirTemp_IsbL-1015_RLatLon0.09_PT064H.grib2 2026-05-04 15:05 479K
20260504T12Z_MSC_RDPS_Albedo_Sfc_RLatLon0.09_PT064H.grib2 2026-05-04 15:05 157K
20260504T12Z_MSC_RDPS_CAPE_Sfc_RLatLon0.09_PT064H.grib2 2026-05-04 15:05 1.7M
20260504T12Z_MSC_RDPS_CIN_Sfc_RLatLon0.09_PT064H.grib2 2026-05-04 15:05 1.2M
20260504T12Z_MSC_RDPS_CloudWater_EAtm_RLatLon0.09_PT064H.grib2 2026-05-04 15:05 222K
20260504T12Z_MSC_RDPS_ConvectivePrecip-Accum_Sfc_RLatLon0.09_PT064H.grib2 2026-05-04 15:05 1.2M
20260504T12Z_MSC_RDPS_DewPointDepression_AGL-2m_RLatLon0.09_PT064H.grib2 2026-05-04 15:05 399K
20260504T12Z_MSC_RDPS_DewPointDepression_IsbL-0001_RLatLon0.09_PT064H.grib2 2026-05-04 15:05 193
20260504T12Z_MSC_RDPS_DewPointDepression_IsbL-0005_RLatLon0.09_PT064H.grib2 2026-05-04 15:05 193
20260504T12Z_MSC_RDPS_DewPointDepression_IsbL-0010_RLatLon0.09_PT064H.grib2 2026-05-04 15:05 193
20260504T12Z_MSC_RDPS_DewPointDepression_IsbL-0020_RLatLon0.09_PT064H.grib2 2026-05-04 15:05 193
20260504T12Z_MSC_RDPS_DewPointDepression_IsbL-0030_RLatLon0.09_PT064H.grib2 2026-05-04 15:05 193
20260504T12Z_MSC_RDPS_DewPointDepression_IsbL-0050_RLatLon0.09_PT064H.grib2 2026-05-04 15:05 78K
20260504T12Z_MSC_RDPS_DewPointDepression_IsbL-0100_RLatLon0.09_PT064H.grib2 2026-05-04 15:05 115K
20260504T12Z_MSC_RDPS_DewPointDepression_IsbL-0150_RLatLon0.09_PT064H.grib2 2026-05-04 15:05 138K
20260504T12Z_MSC_RDPS_DewPointDepression_IsbL-0175_RLatLon0.09_PT064H.grib2 2026-05-04 15:05 182K
20260504T12Z_MSC_RDPS_DewPointDepression_IsbL-0200_RLatLon0.09_PT064H.grib2 2026-05-04 15:05 222K
20260504T12Z_MSC_RDPS_DewPointDepression_IsbL-0225_RLatLon0.09_PT064H.grib2 2026-05-04 15:05 253K
20260504T12Z_MSC_RDPS_DewPointDepression_IsbL-0250_RLatLon0.09_PT064H.grib2 2026-05-04 15:05 299K
20260504T12Z_MSC_RDPS_DewPointDepression_IsbL-0275_RLatLon0.09_PT064H.grib2 2026-05-04 15:05 308K
20260504T12Z_MSC_RDPS_DewPointDepression_IsbL-0300_RLatLon0.09_PT064H.grib2 2026-05-04 15:05 324K
20260504T12Z_MSC_RDPS_DewPointDepression_IsbL-0350_RLatLon0.09_PT064H.grib2 2026-05-04 15:05 332K
20260504T12Z_MSC_RDPS_DewPointDepression_IsbL-0400_RLatLon0.09_PT064H.grib2 2026-05-04 15:05 342K
20260504T12Z_MSC_RDPS_DewPointDepression_IsbL-0450_RLatLon0.09_PT064H.grib2 2026-05-04 15:05 347K
20260504T12Z_MSC_RDPS_DewPointDepression_IsbL-0500_RLatLon0.09_PT064H.grib2 2026-05-04 15:05 348K
20260504T12Z_MSC_RDPS_DewPointDepression_IsbL-0550_RLatLon0.09_PT064H.grib2 2026-05-04 15:05 357K
20260504T12Z_MSC_RDPS_DewPointDepression_IsbL-0600_RLatLon0.09_PT064H.grib2 2026-05-04 15:05 366K
20260504T12Z_MSC_RDPS_DewPointDepression_IsbL-0650_RLatLon0.09_PT064H.grib2 2026-05-04 15:05 369K
20260504T12Z_MSC_RDPS_DewPointDepression_IsbL-0700_RLatLon0.09_PT064H.grib2 2026-05-04 15:05 377K
20260504T12Z_MSC_RDPS_DewPointDepression_IsbL-0750_RLatLon0.09_PT064H.grib2 2026-05-04 15:05 399K
20260504T12Z_MSC_RDPS_DewPointDepression_IsbL-0800_RLatLon0.09_PT064H.grib2 2026-05-04 15:05 439K
20260504T12Z_MSC_RDPS_DewPointDepression_IsbL-0850_RLatLon0.09_PT064H.grib2 2026-05-04 15:05 472K
20260504T12Z_MSC_RDPS_DewPointDepression_IsbL-0875_RLatLon0.09_PT064H.grib2 2026-05-04 15:05 474K
20260504T12Z_MSC_RDPS_DewPointDepression_IsbL-0900_RLatLon0.09_PT064H.grib2 2026-05-04 15:05 465K
20260504T12Z_MSC_RDPS_DewPointDepression_IsbL-0925_RLatLon0.09_PT064H.grib2 2026-05-04 15:05 453K
20260504T12Z_MSC_RDPS_DewPointDepression_IsbL-0950_RLatLon0.09_PT064H.grib2 2026-05-04 15:05 443K
20260504T12Z_MSC_RDPS_DewPointDepression_IsbL-0970_RLatLon0.09_PT064H.grib2 2026-05-04 15:05 432K
20260504T12Z_MSC_RDPS_DewPointDepression_IsbL-0985_RLatLon0.09_PT064H.grib2 2026-05-04 15:05 429K
20260504T12Z_MSC_RDPS_DewPointDepression_IsbL-1000_RLatLon0.09_PT064H.grib2 2026-05-04 15:05 424K
20260504T12Z_MSC_RDPS_DewPointDepression_IsbL-1015_RLatLon0.09_PT064H.grib2 2026-05-04 15:05 412K
20260504T12Z_MSC_RDPS_DewPoint_AGL-2m_RLatLon0.09_PT064H.grib2 2026-05-04 15:05 389K
20260504T12Z_MSC_RDPS_DownwardLongwaveRadiationFlux-Accum_Sfc_RLatLon0.09_PT064H.grib2 2026-05-04 15:05 416K
20260504T12Z_MSC_RDPS_DownwardShortwaveRadiationFlux-Accum_NTAtm_RLatLon0.09_PT064H.grib2 2026-05-04 15:05 111K
20260504T12Z_MSC_RDPS_DownwardShortwaveRadiationFlux-Accum_Sfc_RLatLon0.09_PT064H.grib2 2026-05-04 15:05 625K
20260504T12Z_MSC_RDPS_FreezingRain-Accum1h_Sfc_RLatLon0.09_PT064H.grib2 2026-05-04 15:05 28K
20260504T12Z_MSC_RDPS_FreezingRain-Accum_Sfc_RLatLon0.09_PT064H.grib2 2026-05-04 15:05 183K
20260504T12Z_MSC_RDPS_GeopotentialHeight_IsbL-0001_RLatLon0.09_PT064H.grib2 2026-05-04 15:05 307K
20260504T12Z_MSC_RDPS_GeopotentialHeight_IsbL-0005_RLatLon0.09_PT064H.grib2 2026-05-04 15:05 334K
20260504T12Z_MSC_RDPS_GeopotentialHeight_IsbL-0010_RLatLon0.09_PT064H.grib2 2026-05-04 15:05 335K
20260504T12Z_MSC_RDPS_GeopotentialHeight_IsbL-0020_RLatLon0.09_PT064H.grib2 2026-05-04 15:05 302K
20260504T12Z_MSC_RDPS_GeopotentialHeight_IsbL-0030_RLatLon0.09_PT064H.grib2 2026-05-04 15:05 304K
20260504T12Z_MSC_RDPS_GeopotentialHeight_IsbL-0050_RLatLon0.09_PT064H.grib2 2026-05-04 15:05 305K
20260504T12Z_MSC_RDPS_GeopotentialHeight_IsbL-0100_RLatLon0.09_PT064H.grib2 2026-05-04 15:05 284K
20260504T12Z_MSC_RDPS_GeopotentialHeight_IsbL-0150_RLatLon0.09_PT064H.grib2 2026-05-04 15:05 226K
20260504T12Z_MSC_RDPS_GeopotentialHeight_IsbL-0175_RLatLon0.09_PT064H.grib2 2026-05-04 15:05 229K
20260504T12Z_MSC_RDPS_GeopotentialHeight_IsbL-0200_RLatLon0.09_PT064H.grib2 2026-05-04 15:05 232K
20260504T12Z_MSC_RDPS_GeopotentialHeight_IsbL-0225_RLatLon0.09_PT064H.grib2 2026-05-04 15:05 265K
20260504T12Z_MSC_RDPS_GeopotentialHeight_IsbL-0250_RLatLon0.09_PT064H.grib2 2026-05-04 15:05 267K
20260504T12Z_MSC_RDPS_GeopotentialHeight_IsbL-0275_RLatLon0.09_PT064H.grib2 2026-05-04 15:05 235K
20260504T12Z_MSC_RDPS_GeopotentialHeight_IsbL-0300_RLatLon0.09_PT064H.grib2 2026-05-04 15:05 235K
20260504T12Z_MSC_RDPS_GeopotentialHeight_IsbL-0350_RLatLon0.09_PT064H.grib2 2026-05-04 15:05 232K
20260504T12Z_MSC_RDPS_GeopotentialHeight_IsbL-0400_RLatLon0.09_PT064H.grib2 2026-05-04 15:05 228K
20260504T12Z_MSC_RDPS_GeopotentialHeight_IsbL-0450_RLatLon0.09_PT064H.grib2 2026-05-04 15:05 295K
20260504T12Z_MSC_RDPS_GeopotentialHeight_IsbL-0500_RLatLon0.09_PT064H.grib2 2026-05-04 15:05 290K
20260504T12Z_MSC_RDPS_GeopotentialHeight_IsbL-0550_RLatLon0.09_PT064H.grib2 2026-05-04 15:05 286K
20260504T12Z_MSC_RDPS_GeopotentialHeight_IsbL-0600_RLatLon0.09_PT064H.grib2 2026-05-04 15:05 282K
20260504T12Z_MSC_RDPS_GeopotentialHeight_IsbL-0650_RLatLon0.09_PT064H.grib2 2026-05-04 15:05 254K
20260504T12Z_MSC_RDPS_GeopotentialHeight_IsbL-0700_RLatLon0.09_PT064H.grib2 2026-05-04 15:05 333K
20260504T12Z_MSC_RDPS_GeopotentialHeight_IsbL-0750_RLatLon0.09_PT064H.grib2 2026-05-04 15:05 335K
20260504T12Z_MSC_RDPS_GeopotentialHeight_IsbL-0800_RLatLon0.09_PT064H.grib2 2026-05-04 15:05 375K
20260504T12Z_MSC_RDPS_GeopotentialHeight_IsbL-0850_RLatLon0.09_PT064H.grib2 2026-05-04 15:05 384K
20260504T12Z_MSC_RDPS_GeopotentialHeight_IsbL-0875_RLatLon0.09_PT064H.grib2 2026-05-04 15:05 387K
20260504T12Z_MSC_RDPS_GeopotentialHeight_IsbL-0900_RLatLon0.09_PT064H.grib2 2026-05-04 15:05 390K
20260504T12Z_MSC_RDPS_GeopotentialHeight_IsbL-0925_RLatLon0.09_PT064H.grib2 2026-05-04 15:05 393K
20260504T12Z_MSC_RDPS_GeopotentialHeight_IsbL-0950_RLatLon0.09_PT064H.grib2 2026-05-04 15:05 396K
20260504T12Z_MSC_RDPS_GeopotentialHeight_IsbL-0970_RLatLon0.09_PT064H.grib2 2026-05-04 15:05 400K
20260504T12Z_MSC_RDPS_GeopotentialHeight_IsbL-0985_RLatLon0.09_PT064H.grib2 2026-05-04 15:05 408K
20260504T12Z_MSC_RDPS_GeopotentialHeight_IsbL-1000_RLatLon0.09_PT064H.grib2 2026-05-04 15:05 419K
20260504T12Z_MSC_RDPS_GeopotentialHeight_IsbL-1015_RLatLon0.09_PT064H.grib2 2026-05-04 15:05 399K
20260504T12Z_MSC_RDPS_Humidex_Sfc_RLatLon0.09_PT064H.grib2 2026-05-04 15:05 2.4M
20260504T12Z_MSC_RDPS_IcePellets-Accum1h_Sfc_RLatLon0.09_PT064H.grib2 2026-05-04 15:05 4.8K
20260504T12Z_MSC_RDPS_IcePellets-Accum_Sfc_RLatLon0.09_PT064H.grib2 2026-05-04 15:05 39K
20260504T12Z_MSC_RDPS_KIndex_Sfc_RLatLon0.09_PT064H.grib2 2026-05-04 15:05 2.5M
20260504T12Z_MSC_RDPS_LatentHeatNetFlux_Sfc_RLatLon0.09_PT064H.grib2 2026-05-04 15:05 313K
20260504T12Z_MSC_RDPS_LiftedIndex-MU-VT_IsbL-0500_RLatLon0.09_PT064H.grib2 2026-05-04 15:05 2.4M
20260504T12Z_MSC_RDPS_NetLongwaveRadiationFlux-Accum_Sfc_RLatLon0.09_PT064H.grib2 2026-05-04 15:05 598K
20260504T12Z_MSC_RDPS_NetShortwaveRadiationFlux-Accum_Sfc_RLatLon0.09_PT064H.grib2 2026-05-04 15:05 622K
20260504T12Z_MSC_RDPS_PlanetaryBoundaryLayerHeight_Sfc_RLatLon0.09_PT064H.grib2 2026-05-04 15:05 1.1M
20260504T12Z_MSC_RDPS_Precip-Accum1h_Sfc_RLatLon0.09_PT064H.grib2 2026-05-04 15:05 1.2M
20260504T12Z_MSC_RDPS_Precip-Accum_Sfc_RLatLon0.09_PT064H.grib2 2026-05-04 15:05 2.2M
20260504T12Z_MSC_RDPS_PrecipRate_Sfc_RLatLon0.09_PT064H.grib2 2026-05-04 15:05 190K
20260504T12Z_MSC_RDPS_PrecipType-Instant_Sfc_RLatLon0.09_PT064H.grib2 2026-05-04 15:05 570K
20260504T12Z_MSC_RDPS_Pressure-Trend3h_Sfc_RLatLon0.09_PT064H.grib2 2026-05-04 15:05 1.2M
20260504T12Z_MSC_RDPS_Pressure_MSL_RLatLon0.09_PT064H.grib2 2026-05-04 15:05 287K
20260504T12Z_MSC_RDPS_Pressure_PVU-1.5_RLatLon0.09_PT064H.grib2 2026-05-04 15:05 2.5M
20260504T12Z_MSC_RDPS_Pressure_PVU-1_RLatLon0.09_PT064H.grib2 2026-05-04 15:05 2.4M
20260504T12Z_MSC_RDPS_Pressure_PVU-2_RLatLon0.09_PT064H.grib2 2026-05-04 15:05 2.4M
20260504T12Z_MSC_RDPS_Pressure_Sfc_RLatLon0.09_PT064H.grib2 2026-05-04 15:05 496K
20260504T12Z_MSC_RDPS_RadiativeTemp_Sfc_RLatLon0.09_PT064H.grib2 2026-05-04 15:05 300K
20260504T12Z_MSC_RDPS_Rain-Accum1h_Sfc_RLatLon0.09_PT064H.grib2 2026-05-04 15:05 607K
20260504T12Z_MSC_RDPS_Rain-Accum_Sfc_RLatLon0.09_PT064H.grib2 2026-05-04 15:05 1.8M
20260504T12Z_MSC_RDPS_RelativeHumidity_AGL-2m_RLatLon0.09_PT064H.grib2 2026-05-04 15:05 1.0M
20260504T12Z_MSC_RDPS_RelativeHumidity_IsbL-0010_RLatLon0.09_PT064H.grib2 2026-05-04 15:05 689K
20260504T12Z_MSC_RDPS_RelativeHumidity_IsbL-0020_RLatLon0.09_PT064H.grib2 2026-05-04 15:05 646K
20260504T12Z_MSC_RDPS_RelativeHumidity_IsbL-0030_RLatLon0.09_PT064H.grib2 2026-05-04 15:05 598K
20260504T12Z_MSC_RDPS_RelativeHumidity_IsbL-0050_RLatLon0.09_PT064H.grib2 2026-05-04 15:05 354K
20260504T12Z_MSC_RDPS_RelativeHumidity_IsbL-0100_RLatLon0.09_PT064H.grib2 2026-05-04 15:05 275K
20260504T12Z_MSC_RDPS_RelativeHumidity_IsbL-0150_RLatLon0.09_PT064H.grib2 2026-05-04 15:05 411K
20260504T12Z_MSC_RDPS_RelativeHumidity_IsbL-0175_RLatLon0.09_PT064H.grib2 2026-05-04 15:05 470K
20260504T12Z_MSC_RDPS_RelativeHumidity_IsbL-0200_RLatLon0.09_PT064H.grib2 2026-05-04 15:05 544K
20260504T12Z_MSC_RDPS_RelativeHumidity_IsbL-0225_RLatLon0.09_PT064H.grib2 2026-05-04 15:05 609K
20260504T12Z_MSC_RDPS_RelativeHumidity_IsbL-0250_RLatLon0.09_PT064H.grib2 2026-05-04 15:05 675K
20260504T12Z_MSC_RDPS_RelativeHumidity_IsbL-0275_RLatLon0.09_PT064H.grib2 2026-05-04 15:05 702K
20260504T12Z_MSC_RDPS_RelativeHumidity_IsbL-0300_RLatLon0.09_PT064H.grib2 2026-05-04 15:05 747K
20260504T12Z_MSC_RDPS_RelativeHumidity_IsbL-0350_RLatLon0.09_PT064H.grib2 2026-05-04 15:05 772K
20260504T12Z_MSC_RDPS_RelativeHumidity_IsbL-0400_RLatLon0.09_PT064H.grib2 2026-05-04 15:05 787K
20260504T12Z_MSC_RDPS_RelativeHumidity_IsbL-0450_RLatLon0.09_PT064H.grib2 2026-05-04 15:05 792K
20260504T12Z_MSC_RDPS_RelativeHumidity_IsbL-0500_RLatLon0.09_PT064H.grib2 2026-05-04 15:05 792K
20260504T12Z_MSC_RDPS_RelativeHumidity_IsbL-0550_RLatLon0.09_PT064H.grib2 2026-05-04 15:05 807K
20260504T12Z_MSC_RDPS_RelativeHumidity_IsbL-0600_RLatLon0.09_PT064H.grib2 2026-05-04 15:05 824K
20260504T12Z_MSC_RDPS_RelativeHumidity_IsbL-0650_RLatLon0.09_PT064H.grib2 2026-05-04 15:05 835K
20260504T12Z_MSC_RDPS_RelativeHumidity_IsbL-0700_RLatLon0.09_PT064H.grib2 2026-05-04 15:05 859K
20260504T12Z_MSC_RDPS_RelativeHumidity_IsbL-0750_RLatLon0.09_PT064H.grib2 2026-05-04 15:05 903K
20260504T12Z_MSC_RDPS_RelativeHumidity_IsbL-0800_RLatLon0.09_PT064H.grib2 2026-05-04 15:05 1.0M
20260504T12Z_MSC_RDPS_RelativeHumidity_IsbL-0850_RLatLon0.09_PT064H.grib2 2026-05-04 15:05 1.0M
20260504T12Z_MSC_RDPS_RelativeHumidity_IsbL-0875_RLatLon0.09_PT064H.grib2 2026-05-04 15:05 1.1M
20260504T12Z_MSC_RDPS_RelativeHumidity_IsbL-0900_RLatLon0.09_PT064H.grib2 2026-05-04 15:05 1.1M
20260504T12Z_MSC_RDPS_RelativeHumidity_IsbL-0925_RLatLon0.09_PT064H.grib2 2026-05-04 15:05 1.1M
20260504T12Z_MSC_RDPS_RelativeHumidity_IsbL-0950_RLatLon0.09_PT064H.grib2 2026-05-04 15:05 1.1M
20260504T12Z_MSC_RDPS_RelativeHumidity_IsbL-0970_RLatLon0.09_PT064H.grib2 2026-05-04 15:05 1.0M
20260504T12Z_MSC_RDPS_RelativeHumidity_IsbL-0985_RLatLon0.09_PT064H.grib2 2026-05-04 15:05 1.0M
20260504T12Z_MSC_RDPS_RelativeHumidity_IsbL-1000_RLatLon0.09_PT064H.grib2 2026-05-04 15:05 1.0M
20260504T12Z_MSC_RDPS_RelativeHumidity_IsbL-1015_RLatLon0.09_PT064H.grib2 2026-05-04 15:05 1.0M
20260504T12Z_MSC_RDPS_Runoff-Accum_Sfc_RLatLon0.09_PT064H.grib2 2026-05-04 15:05 64K
20260504T12Z_MSC_RDPS_SWEATIndex_Sfc_RLatLon0.09_PT064H.grib2 2026-05-04 15:05 2.4M
20260504T12Z_MSC_RDPS_SeeingIndex_EAtm_RLatLon0.09_PT064H.grib2 2026-05-04 15:05 1.0M
20260504T12Z_MSC_RDPS_SensibleHeatNetFlux_Sfc_RLatLon0.09_PT064H.grib2 2026-05-04 15:05 283K
20260504T12Z_MSC_RDPS_ShowalterIndex_IsbL-0500_RLatLon0.09_PT064H.grib2 2026-05-04 15:05 2.6M
20260504T12Z_MSC_RDPS_SkyTransparencyIndex_EAtm_RLatLon0.09_PT064H.grib2 2026-05-04 15:05 737K
20260504T12Z_MSC_RDPS_Snow-Accum1h_Sfc_RLatLon0.09_PT064H.grib2 2026-05-04 15:05 518K
20260504T12Z_MSC_RDPS_Snow-Accum_Sfc_RLatLon0.09_PT064H.grib2 2026-05-04 15:05 780K
20260504T12Z_MSC_RDPS_SnowDensity_Sfc_RLatLon0.09_PT064H.grib2 2026-05-04 15:05 176K
20260504T12Z_MSC_RDPS_SnowDepth_Sfc_RLatLon0.09_PT064H.grib2 2026-05-04 15:05 650K
20260504T12Z_MSC_RDPS_SoilTemp_DBS-0to10cm_RLatLon0.09_PT064H.grib2 2026-05-04 15:05 246K
20260504T12Z_MSC_RDPS_SoilTemp_Sfc_RLatLon0.09_PT064H.grib2 2026-05-04 15:05 269K
20260504T12Z_MSC_RDPS_SoilVolumetricIceContent_Sfc_RLatLon0.09_PT064H.grib2 2026-05-04 15:05 150K
20260504T12Z_MSC_RDPS_SoilVolumetricWaterContent_DBS-0to10cm_RLatLon0.09_PT064H.grib2 2026-05-04 15:05 282K
20260504T12Z_MSC_RDPS_SoilVolumetricWaterContent_DBS-0to1cm_RLatLon0.09_PT064H.grib2 2026-05-04 15:05 345K
20260504T12Z_MSC_RDPS_SpecificHumidity_AGL-120m_RLatLon0.09_PT064H.grib2 2026-05-04 15:05 488K
20260504T12Z_MSC_RDPS_SpecificHumidity_AGL-2m_RLatLon0.09_PT064H.grib2 2026-05-04 15:05 654K
20260504T12Z_MSC_RDPS_SpecificHumidity_AGL-40m_RLatLon0.09_PT064H.grib2 2026-05-04 15:05 494K
20260504T12Z_MSC_RDPS_SpecificHumidity_AGL-80m_RLatLon0.09_PT064H.grib2 2026-05-04 15:05 490K
20260504T12Z_MSC_RDPS_SpecificHumidity_IsbL-0001_RLatLon0.09_PT064H.grib2 2026-05-04 15:05 368K
20260504T12Z_MSC_RDPS_SpecificHumidity_IsbL-0005_RLatLon0.09_PT064H.grib2 2026-05-04 15:05 369K
20260504T12Z_MSC_RDPS_SpecificHumidity_IsbL-0010_RLatLon0.09_PT064H.grib2 2026-05-04 15:05 401K
20260504T12Z_MSC_RDPS_SpecificHumidity_IsbL-0020_RLatLon0.09_PT064H.grib2 2026-05-04 15:05 379K
20260504T12Z_MSC_RDPS_SpecificHumidity_IsbL-0030_RLatLon0.09_PT064H.grib2 2026-05-04 15:05 363K
20260504T12Z_MSC_RDPS_SpecificHumidity_IsbL-0050_RLatLon0.09_PT064H.grib2 2026-05-04 15:05 470K
20260504T12Z_MSC_RDPS_SpecificHumidity_IsbL-0100_RLatLon0.09_PT064H.grib2 2026-05-04 15:05 420K
20260504T12Z_MSC_RDPS_SpecificHumidity_IsbL-0150_RLatLon0.09_PT064H.grib2 2026-05-04 15:05 458K
20260504T12Z_MSC_RDPS_SpecificHumidity_IsbL-0175_RLatLon0.09_PT064H.grib2 2026-05-04 15:05 442K
20260504T12Z_MSC_RDPS_SpecificHumidity_IsbL-0200_RLatLon0.09_PT064H.grib2 2026-05-04 15:05 469K
20260504T12Z_MSC_RDPS_SpecificHumidity_IsbL-0225_RLatLon0.09_PT064H.grib2 2026-05-04 15:05 449K
20260504T12Z_MSC_RDPS_SpecificHumidity_IsbL-0250_RLatLon0.09_PT064H.grib2 2026-05-04 15:05 553K
20260504T12Z_MSC_RDPS_SpecificHumidity_IsbL-0275_RLatLon0.09_PT064H.grib2 2026-05-04 15:05 470K
20260504T12Z_MSC_RDPS_SpecificHumidity_IsbL-0300_RLatLon0.09_PT064H.grib2 2026-05-04 15:05 542K
20260504T12Z_MSC_RDPS_SpecificHumidity_IsbL-0350_RLatLon0.09_PT064H.grib2 2026-05-04 15:05 538K
20260504T12Z_MSC_RDPS_SpecificHumidity_IsbL-0400_RLatLon0.09_PT064H.grib2 2026-05-04 15:05 521K
20260504T12Z_MSC_RDPS_SpecificHumidity_IsbL-0450_RLatLon0.09_PT064H.grib2 2026-05-04 15:05 572K
20260504T12Z_MSC_RDPS_SpecificHumidity_IsbL-0500_RLatLon0.09_PT064H.grib2 2026-05-04 15:05 503K
20260504T12Z_MSC_RDPS_SpecificHumidity_IsbL-0550_RLatLon0.09_PT064H.grib2 2026-05-04 15:05 574K
20260504T12Z_MSC_RDPS_SpecificHumidity_IsbL-0600_RLatLon0.09_PT064H.grib2 2026-05-04 15:05 625K
20260504T12Z_MSC_RDPS_SpecificHumidity_IsbL-0650_RLatLon0.09_PT064H.grib2 2026-05-04 15:05 541K
20260504T12Z_MSC_RDPS_SpecificHumidity_IsbL-0700_RLatLon0.09_PT064H.grib2 2026-05-04 15:05 583K
20260504T12Z_MSC_RDPS_SpecificHumidity_IsbL-0750_RLatLon0.09_PT064H.grib2 2026-05-04 15:05 638K
20260504T12Z_MSC_RDPS_SpecificHumidity_IsbL-0800_RLatLon0.09_PT064H.grib2 2026-05-04 15:05 725K
20260504T12Z_MSC_RDPS_SpecificHumidity_IsbL-0850_RLatLon0.09_PT064H.grib2 2026-05-04 15:05 803K
20260504T12Z_MSC_RDPS_SpecificHumidity_IsbL-0875_RLatLon0.09_PT064H.grib2 2026-05-04 15:05 831K
20260504T12Z_MSC_RDPS_SpecificHumidity_IsbL-0900_RLatLon0.09_PT064H.grib2 2026-05-04 15:05 706K
20260504T12Z_MSC_RDPS_SpecificHumidity_IsbL-0925_RLatLon0.09_PT064H.grib2 2026-05-04 15:05 707K
20260504T12Z_MSC_RDPS_SpecificHumidity_IsbL-0950_RLatLon0.09_PT064H.grib2 2026-05-04 15:05 706K
20260504T12Z_MSC_RDPS_SpecificHumidity_IsbL-0970_RLatLon0.09_PT064H.grib2 2026-05-04 15:05 694K
20260504T12Z_MSC_RDPS_SpecificHumidity_IsbL-0985_RLatLon0.09_PT064H.grib2 2026-05-04 15:05 687K
20260504T12Z_MSC_RDPS_SpecificHumidity_IsbL-1000_RLatLon0.09_PT064H.grib2 2026-05-04 15:05 680K
20260504T12Z_MSC_RDPS_SpecificHumidity_IsbL-1015_RLatLon0.09_PT064H.grib2 2026-05-04 15:05 668K
20260504T12Z_MSC_RDPS_SpecificHumidity_Sfc_RLatLon0.09_PT064H.grib2 2026-05-04 15:05 314K
20260504T12Z_MSC_RDPS_StormRelativeHelicity_EtaL-10000_RLatLon0.09_PT064H.grib2 2026-05-04 15:05 1.1M
20260504T12Z_MSC_RDPS_StormSeverityIndex_EtaL-10000_RLatLon0.09_PT064H.grib2 2026-05-04 15:05 1.2M
20260504T12Z_MSC_RDPS_Thickness_IsbL-0850to0700_RLatLon0.09_PT064H.grib2 2026-05-04 15:05 172K
20260504T12Z_MSC_RDPS_Thickness_IsbL-1000to0500_RLatLon0.09_PT064H.grib2 2026-05-04 15:05 192K
20260504T12Z_MSC_RDPS_Thickness_IsbL-1000to0850_RLatLon0.09_PT064H.grib2 2026-05-04 15:05 255K
20260504T12Z_MSC_RDPS_TotalCloudCover_Sfc_RLatLon0.09_PT064H.grib2 2026-05-04 15:05 670K
20260504T12Z_MSC_RDPS_TotalTotalsIndex_Sfc_RLatLon0.09_PT064H.grib2 2026-05-04 15:05 2.4M
20260504T12Z_MSC_RDPS_UVIndex-ClearSky_Sfc_RLatLon0.09_PT064H.grib2 2026-05-04 15:05 87K
20260504T12Z_MSC_RDPS_UVIndex_Sfc_RLatLon0.09_PT064H.grib2 2026-05-04 15:05 215K
20260504T12Z_MSC_RDPS_UpwardLongwaveRadiationFlux_NTAtm_RLatLon0.09_PT064H.grib2 2026-05-04 15:05 485K
20260504T12Z_MSC_RDPS_UpwardShortwaveRadiationFlux_NTAtm_RLatLon0.09_PT064H.grib2 2026-05-04 15:05 174K
20260504T12Z_MSC_RDPS_VerticalVelocity_IsbL-0250_RLatLon0.09_PT064H.grib2 2026-05-04 15:05 572K
20260504T12Z_MSC_RDPS_VerticalVelocity_IsbL-0500_RLatLon0.09_PT064H.grib2 2026-05-04 15:05 540K
20260504T12Z_MSC_RDPS_VerticalVelocity_IsbL-0700_RLatLon0.09_PT064H.grib2 2026-05-04 15:05 586K
20260504T12Z_MSC_RDPS_VerticalVelocity_IsbL-0850_RLatLon0.09_PT064H.grib2 2026-05-04 15:05 685K
20260504T12Z_MSC_RDPS_VerticalWindShear_EtaL-6500_RLatLon0.09_PT064H.grib2 2026-05-04 15:05 1.2M
20260504T12Z_MSC_RDPS_WindChill_Sfc_RLatLon0.09_PT064H.grib2 2026-05-04 15:05 1.2M
20260504T12Z_MSC_RDPS_WindDir_AGL-10m_RLatLon0.09_PT064H.grib2 2026-05-04 15:05 954K
20260504T12Z_MSC_RDPS_WindDir_AGL-120m_RLatLon0.09_PT064H.grib2 2026-05-04 15:05 590K
20260504T12Z_MSC_RDPS_WindDir_AGL-40m_RLatLon0.09_PT064H.grib2 2026-05-04 15:05 623K
20260504T12Z_MSC_RDPS_WindDir_AGL-80m_RLatLon0.09_PT064H.grib2 2026-05-04 15:05 602K
20260504T12Z_MSC_RDPS_WindDir_IsbL-0001_RLatLon0.09_PT064H.grib2 2026-05-04 15:05 307K
20260504T12Z_MSC_RDPS_WindDir_IsbL-0005_RLatLon0.09_PT064H.grib2 2026-05-04 15:05 374K
20260504T12Z_MSC_RDPS_WindDir_IsbL-0010_RLatLon0.09_PT064H.grib2 2026-05-04 15:05 380K
20260504T12Z_MSC_RDPS_WindDir_IsbL-0020_RLatLon0.09_PT064H.grib2 2026-05-04 15:05 417K
20260504T12Z_MSC_RDPS_WindDir_IsbL-0030_RLatLon0.09_PT064H.grib2 2026-05-04 15:05 408K
20260504T12Z_MSC_RDPS_WindDir_IsbL-0050_RLatLon0.09_PT064H.grib2 2026-05-04 15:05 431K
20260504T12Z_MSC_RDPS_WindDir_IsbL-0100_RLatLon0.09_PT064H.grib2 2026-05-04 15:05 409K
20260504T12Z_MSC_RDPS_WindDir_IsbL-0150_RLatLon0.09_PT064H.grib2 2026-05-04 15:05 410K
20260504T12Z_MSC_RDPS_WindDir_IsbL-0175_RLatLon0.09_PT064H.grib2 2026-05-04 15:05 435K
20260504T12Z_MSC_RDPS_WindDir_IsbL-0200_RLatLon0.09_PT064H.grib2 2026-05-04 15:05 452K
20260504T12Z_MSC_RDPS_WindDir_IsbL-0225_RLatLon0.09_PT064H.grib2 2026-05-04 15:05 459K
20260504T12Z_MSC_RDPS_WindDir_IsbL-0250_RLatLon0.09_PT064H.grib2 2026-05-04 15:05 452K
20260504T12Z_MSC_RDPS_WindDir_IsbL-0275_RLatLon0.09_PT064H.grib2 2026-05-04 15:05 465K
20260504T12Z_MSC_RDPS_WindDir_IsbL-0300_RLatLon0.09_PT064H.grib2 2026-05-04 15:05 461K
20260504T12Z_MSC_RDPS_WindDir_IsbL-0350_RLatLon0.09_PT064H.grib2 2026-05-04 15:05 491K
20260504T12Z_MSC_RDPS_WindDir_IsbL-0400_RLatLon0.09_PT064H.grib2 2026-05-04 15:05 509K
20260504T12Z_MSC_RDPS_WindDir_IsbL-0450_RLatLon0.09_PT064H.grib2 2026-05-04 15:05 526K
20260504T12Z_MSC_RDPS_WindDir_IsbL-0500_RLatLon0.09_PT064H.grib2 2026-05-04 15:05 539K
20260504T12Z_MSC_RDPS_WindDir_IsbL-0550_RLatLon0.09_PT064H.grib2 2026-05-04 15:05 555K
20260504T12Z_MSC_RDPS_WindDir_IsbL-0600_RLatLon0.09_PT064H.grib2 2026-05-04 15:05 584K
20260504T12Z_MSC_RDPS_WindDir_IsbL-0650_RLatLon0.09_PT064H.grib2 2026-05-04 15:05 625K
20260504T12Z_MSC_RDPS_WindDir_IsbL-0700_RLatLon0.09_PT064H.grib2 2026-05-04 15:05 668K
20260504T12Z_MSC_RDPS_WindDir_IsbL-0750_RLatLon0.09_PT064H.grib2 2026-05-04 15:05 716K
20260504T12Z_MSC_RDPS_WindDir_IsbL-0800_RLatLon0.09_PT064H.grib2 2026-05-04 15:05 778K
20260504T12Z_MSC_RDPS_WindDir_IsbL-0850_RLatLon0.09_PT064H.grib2 2026-05-04 15:05 851K
20260504T12Z_MSC_RDPS_WindDir_IsbL-0875_RLatLon0.09_PT064H.grib2 2026-05-04 15:05 878K
20260504T12Z_MSC_RDPS_WindDir_IsbL-0900_RLatLon0.09_PT064H.grib2 2026-05-04 15:05 892K
20260504T12Z_MSC_RDPS_WindDir_IsbL-0925_RLatLon0.09_PT064H.grib2 2026-05-04 15:05 902K
20260504T12Z_MSC_RDPS_WindDir_IsbL-0950_RLatLon0.09_PT064H.grib2 2026-05-04 15:05 903K
20260504T12Z_MSC_RDPS_WindDir_IsbL-0970_RLatLon0.09_PT064H.grib2 2026-05-04 15:05 907K
20260504T12Z_MSC_RDPS_WindDir_IsbL-0985_RLatLon0.09_PT064H.grib2 2026-05-04 15:05 914K
20260504T12Z_MSC_RDPS_WindDir_IsbL-1000_RLatLon0.09_PT064H.grib2 2026-05-04 15:05 927K
20260504T12Z_MSC_RDPS_WindDir_IsbL-1015_RLatLon0.09_PT064H.grib2 2026-05-04 15:05 945K
20260504T12Z_MSC_RDPS_WindGust-Max_AGL-10m_RLatLon0.09_PT064H.grib2 2026-05-04 15:05 1.0M
20260504T12Z_MSC_RDPS_WindGust-Min_AGL-10m_RLatLon0.09_PT064H.grib2 2026-05-04 15:05 965K
20260504T12Z_MSC_RDPS_WindGust_AGL-10m_RLatLon0.09_PT064H.grib2 2026-05-04 15:05 1.0M
20260504T12Z_MSC_RDPS_WindSpeed_AGL-10m_RLatLon0.09_PT064H.grib2 2026-05-04 15:05 829K
20260504T12Z_MSC_RDPS_WindSpeed_AGL-120m_RLatLon0.09_PT064H.grib2 2026-05-04 15:05 531K
20260504T12Z_MSC_RDPS_WindSpeed_AGL-40m_RLatLon0.09_PT064H.grib2 2026-05-04 15:05 663K
20260504T12Z_MSC_RDPS_WindSpeed_AGL-80m_RLatLon0.09_PT064H.grib2 2026-05-04 15:05 533K
20260504T12Z_MSC_RDPS_WindSpeed_IsbL-0001_RLatLon0.09_PT064H.grib2 2026-05-04 15:05 332K
20260504T12Z_MSC_RDPS_WindSpeed_IsbL-0005_RLatLon0.09_PT064H.grib2 2026-05-04 15:05 293K
20260504T12Z_MSC_RDPS_WindSpeed_IsbL-0010_RLatLon0.09_PT064H.grib2 2026-05-04 15:05 398K
20260504T12Z_MSC_RDPS_WindSpeed_IsbL-0020_RLatLon0.09_PT064H.grib2 2026-05-04 15:05 421K
20260504T12Z_MSC_RDPS_WindSpeed_IsbL-0030_RLatLon0.09_PT064H.grib2 2026-05-04 15:05 316K
20260504T12Z_MSC_RDPS_WindSpeed_IsbL-0050_RLatLon0.09_PT064H.grib2 2026-05-04 15:05 346K
20260504T12Z_MSC_RDPS_WindSpeed_IsbL-0100_RLatLon0.09_PT064H.grib2 2026-05-04 15:05 433K
20260504T12Z_MSC_RDPS_WindSpeed_IsbL-0150_RLatLon0.09_PT064H.grib2 2026-05-04 15:05 397K
20260504T12Z_MSC_RDPS_WindSpeed_IsbL-0175_RLatLon0.09_PT064H.grib2 2026-05-04 15:05 422K
20260504T12Z_MSC_RDPS_WindSpeed_IsbL-0200_RLatLon0.09_PT064H.grib2 2026-05-04 15:05 438K
20260504T12Z_MSC_RDPS_WindSpeed_IsbL-0225_RLatLon0.09_PT064H.grib2 2026-05-04 15:05 441K
20260504T12Z_MSC_RDPS_WindSpeed_IsbL-0250_RLatLon0.09_PT064H.grib2 2026-05-04 15:05 441K
20260504T12Z_MSC_RDPS_WindSpeed_IsbL-0275_RLatLon0.09_PT064H.grib2 2026-05-04 15:05 460K
20260504T12Z_MSC_RDPS_WindSpeed_IsbL-0300_RLatLon0.09_PT064H.grib2 2026-05-04 15:05 458K
20260504T12Z_MSC_RDPS_WindSpeed_IsbL-0350_RLatLon0.09_PT064H.grib2 2026-05-04 15:05 473K
20260504T12Z_MSC_RDPS_WindSpeed_IsbL-0400_RLatLon0.09_PT064H.grib2 2026-05-04 15:05 459K
20260504T12Z_MSC_RDPS_WindSpeed_IsbL-0450_RLatLon0.09_PT064H.grib2 2026-05-04 15:05 457K
20260504T12Z_MSC_RDPS_WindSpeed_IsbL-0500_RLatLon0.09_PT064H.grib2 2026-05-04 15:05 573K
20260504T12Z_MSC_RDPS_WindSpeed_IsbL-0550_RLatLon0.09_PT064H.grib2 2026-05-04 15:05 574K
20260504T12Z_MSC_RDPS_WindSpeed_IsbL-0600_RLatLon0.09_PT064H.grib2 2026-05-04 15:05 583K
20260504T12Z_MSC_RDPS_WindSpeed_IsbL-0650_RLatLon0.09_PT064H.grib2 2026-05-04 15:05 646K
20260504T12Z_MSC_RDPS_WindSpeed_IsbL-0700_RLatLon0.09_PT064H.grib2 2026-05-04 15:05 672K
20260504T12Z_MSC_RDPS_WindSpeed_IsbL-0750_RLatLon0.09_PT064H.grib2 2026-05-04 15:05 702K
20260504T12Z_MSC_RDPS_WindSpeed_IsbL-0800_RLatLon0.09_PT064H.grib2 2026-05-04 15:05 751K
20260504T12Z_MSC_RDPS_WindSpeed_IsbL-0850_RLatLon0.09_PT064H.grib2 2026-05-04 15:05 813K
20260504T12Z_MSC_RDPS_WindSpeed_IsbL-0875_RLatLon0.09_PT064H.grib2 2026-05-04 15:05 836K
20260504T12Z_MSC_RDPS_WindSpeed_IsbL-0900_RLatLon0.09_PT064H.grib2 2026-05-04 15:05 850K
20260504T12Z_MSC_RDPS_WindSpeed_IsbL-0925_RLatLon0.09_PT064H.grib2 2026-05-04 15:05 862K
20260504T12Z_MSC_RDPS_WindSpeed_IsbL-0950_RLatLon0.09_PT064H.grib2 2026-05-04 15:05 861K
20260504T12Z_MSC_RDPS_WindSpeed_IsbL-0970_RLatLon0.09_PT064H.grib2 2026-05-04 15:05 857K
20260504T12Z_MSC_RDPS_WindSpeed_IsbL-0985_RLatLon0.09_PT064H.grib2 2026-05-04 15:05 848K
20260504T12Z_MSC_RDPS_WindSpeed_IsbL-1000_RLatLon0.09_PT064H.grib2 2026-05-04 15:05 840K
20260504T12Z_MSC_RDPS_WindSpeed_IsbL-1015_RLatLon0.09_PT064H.grib2 2026-05-04 15:05 829K
20260504T12Z_MSC_RDPS_WindU_AGL-10m_RLatLon0.09_PT064H.grib2 2026-05-04 15:05 428K
20260504T12Z_MSC_RDPS_WindU_AGL-120m_RLatLon0.09_PT064H.grib2 2026-05-04 15:05 530K
20260504T12Z_MSC_RDPS_WindU_AGL-40m_RLatLon0.09_PT064H.grib2 2026-05-04 15:05 533K
20260504T12Z_MSC_RDPS_WindU_AGL-80m_RLatLon0.09_PT064H.grib2 2026-05-04 15:05 532K
20260504T12Z_MSC_RDPS_WindU_IsbL-0001_RLatLon0.09_PT064H.grib2 2026-05-04 15:05 242K
20260504T12Z_MSC_RDPS_WindU_IsbL-0005_RLatLon0.09_PT064H.grib2 2026-05-04 15:05 327K
20260504T12Z_MSC_RDPS_WindU_IsbL-0010_RLatLon0.09_PT064H.grib2 2026-05-04 15:05 297K
20260504T12Z_MSC_RDPS_WindU_IsbL-0020_RLatLon0.09_PT064H.grib2 2026-05-04 15:05 315K
20260504T12Z_MSC_RDPS_WindU_IsbL-0030_RLatLon0.09_PT064H.grib2 2026-05-04 15:05 351K
20260504T12Z_MSC_RDPS_WindU_IsbL-0050_RLatLon0.09_PT064H.grib2 2026-05-04 15:05 377K
20260504T12Z_MSC_RDPS_WindU_IsbL-0100_RLatLon0.09_PT064H.grib2 2026-05-04 15:05 332K
20260504T12Z_MSC_RDPS_WindU_IsbL-0150_RLatLon0.09_PT064H.grib2 2026-05-04 15:05 391K
20260504T12Z_MSC_RDPS_WindU_IsbL-0175_RLatLon0.09_PT064H.grib2 2026-05-04 15:05 415K
20260504T12Z_MSC_RDPS_WindU_IsbL-0200_RLatLon0.09_PT064H.grib2 2026-05-04 15:05 334K
20260504T12Z_MSC_RDPS_WindU_IsbL-0225_RLatLon0.09_PT064H.grib2 2026-05-04 15:05 336K
20260504T12Z_MSC_RDPS_WindU_IsbL-0250_RLatLon0.09_PT064H.grib2 2026-05-04 15:05 335K
20260504T12Z_MSC_RDPS_WindU_IsbL-0275_RLatLon0.09_PT064H.grib2 2026-05-04 15:05 349K
20260504T12Z_MSC_RDPS_WindU_IsbL-0300_RLatLon0.09_PT064H.grib2 2026-05-04 15:05 346K
20260504T12Z_MSC_RDPS_WindU_IsbL-0350_RLatLon0.09_PT064H.grib2 2026-05-04 15:05 358K
20260504T12Z_MSC_RDPS_WindU_IsbL-0400_RLatLon0.09_PT064H.grib2 2026-05-04 15:05 361K
20260504T12Z_MSC_RDPS_WindU_IsbL-0450_RLatLon0.09_PT064H.grib2 2026-05-04 15:05 463K
20260504T12Z_MSC_RDPS_WindU_IsbL-0500_RLatLon0.09_PT064H.grib2 2026-05-04 15:05 462K
20260504T12Z_MSC_RDPS_WindU_IsbL-0550_RLatLon0.09_PT064H.grib2 2026-05-04 15:05 463K
20260504T12Z_MSC_RDPS_WindU_IsbL-0600_RLatLon0.09_PT064H.grib2 2026-05-04 15:05 472K
20260504T12Z_MSC_RDPS_WindU_IsbL-0650_RLatLon0.09_PT064H.grib2 2026-05-04 15:05 490K
20260504T12Z_MSC_RDPS_WindU_IsbL-0700_RLatLon0.09_PT064H.grib2 2026-05-04 15:05 512K
20260504T12Z_MSC_RDPS_WindU_IsbL-0750_RLatLon0.09_PT064H.grib2 2026-05-04 15:05 537K
20260504T12Z_MSC_RDPS_WindU_IsbL-0800_RLatLon0.09_PT064H.grib2 2026-05-04 15:05 578K
20260504T12Z_MSC_RDPS_WindU_IsbL-0850_RLatLon0.09_PT064H.grib2 2026-05-04 15:05 631K
20260504T12Z_MSC_RDPS_WindU_IsbL-0875_RLatLon0.09_PT064H.grib2 2026-05-04 15:05 641K
20260504T12Z_MSC_RDPS_WindU_IsbL-0900_RLatLon0.09_PT064H.grib2 2026-05-04 15:05 651K
20260504T12Z_MSC_RDPS_WindU_IsbL-0925_RLatLon0.09_PT064H.grib2 2026-05-04 15:05 659K
20260504T12Z_MSC_RDPS_WindU_IsbL-0950_RLatLon0.09_PT064H.grib2 2026-05-04 15:05 656K
20260504T12Z_MSC_RDPS_WindU_IsbL-0970_RLatLon0.09_PT064H.grib2 2026-05-04 15:05 652K
20260504T12Z_MSC_RDPS_WindU_IsbL-0985_RLatLon0.09_PT064H.grib2 2026-05-04 15:05 785K
20260504T12Z_MSC_RDPS_WindU_IsbL-1000_RLatLon0.09_PT064H.grib2 2026-05-04 15:05 778K
20260504T12Z_MSC_RDPS_WindU_IsbL-1015_RLatLon0.09_PT064H.grib2 2026-05-04 15:05 817K
20260504T12Z_MSC_RDPS_WindV_AGL-10m_RLatLon0.09_PT064H.grib2 2026-05-04 15:05 424K
20260504T12Z_MSC_RDPS_WindV_AGL-120m_RLatLon0.09_PT064H.grib2 2026-05-04 15:05 526K
20260504T12Z_MSC_RDPS_WindV_AGL-40m_RLatLon0.09_PT064H.grib2 2026-05-04 15:05 530K
20260504T12Z_MSC_RDPS_WindV_AGL-80m_RLatLon0.09_PT064H.grib2 2026-05-04 15:05 528K
20260504T12Z_MSC_RDPS_WindV_IsbL-0001_RLatLon0.09_PT064H.grib2 2026-05-04 15:05 245K
20260504T12Z_MSC_RDPS_WindV_IsbL-0005_RLatLon0.09_PT064H.grib2 2026-05-04 15:05 287K
20260504T12Z_MSC_RDPS_WindV_IsbL-0010_RLatLon0.09_PT064H.grib2 2026-05-04 15:05 298K
20260504T12Z_MSC_RDPS_WindV_IsbL-0020_RLatLon0.09_PT064H.grib2 2026-05-04 15:05 317K
20260504T12Z_MSC_RDPS_WindV_IsbL-0030_RLatLon0.09_PT064H.grib2 2026-05-04 15:05 315K
20260504T12Z_MSC_RDPS_WindV_IsbL-0050_RLatLon0.09_PT064H.grib2 2026-05-04 15:05 340K
20260504T12Z_MSC_RDPS_WindV_IsbL-0100_RLatLon0.09_PT064H.grib2 2026-05-04 15:05 328K
20260504T12Z_MSC_RDPS_WindV_IsbL-0150_RLatLon0.09_PT064H.grib2 2026-05-04 15:05 389K
20260504T12Z_MSC_RDPS_WindV_IsbL-0175_RLatLon0.09_PT064H.grib2 2026-05-04 15:05 413K
20260504T12Z_MSC_RDPS_WindV_IsbL-0200_RLatLon0.09_PT064H.grib2 2026-05-04 15:05 429K
20260504T12Z_MSC_RDPS_WindV_IsbL-0225_RLatLon0.09_PT064H.grib2 2026-05-04 15:05 335K
20260504T12Z_MSC_RDPS_WindV_IsbL-0250_RLatLon0.09_PT064H.grib2 2026-05-04 15:05 334K
20260504T12Z_MSC_RDPS_WindV_IsbL-0275_RLatLon0.09_PT064H.grib2 2026-05-04 15:05 349K
20260504T12Z_MSC_RDPS_WindV_IsbL-0300_RLatLon0.09_PT064H.grib2 2026-05-04 15:05 346K
20260504T12Z_MSC_RDPS_WindV_IsbL-0350_RLatLon0.09_PT064H.grib2 2026-05-04 15:05 357K
20260504T12Z_MSC_RDPS_WindV_IsbL-0400_RLatLon0.09_PT064H.grib2 2026-05-04 15:05 360K
20260504T12Z_MSC_RDPS_WindV_IsbL-0450_RLatLon0.09_PT064H.grib2 2026-05-04 15:05 461K
20260504T12Z_MSC_RDPS_WindV_IsbL-0500_RLatLon0.09_PT064H.grib2 2026-05-04 15:05 461K
20260504T12Z_MSC_RDPS_WindV_IsbL-0550_RLatLon0.09_PT064H.grib2 2026-05-04 15:05 462K
20260504T12Z_MSC_RDPS_WindV_IsbL-0600_RLatLon0.09_PT064H.grib2 2026-05-04 15:05 469K
20260504T12Z_MSC_RDPS_WindV_IsbL-0650_RLatLon0.09_PT064H.grib2 2026-05-04 15:05 487K
20260504T12Z_MSC_RDPS_WindV_IsbL-0700_RLatLon0.09_PT064H.grib2 2026-05-04 15:05 508K
20260504T12Z_MSC_RDPS_WindV_IsbL-0750_RLatLon0.09_PT064H.grib2 2026-05-04 15:05 534K
20260504T12Z_MSC_RDPS_WindV_IsbL-0800_RLatLon0.09_PT064H.grib2 2026-05-04 15:05 562K
20260504T12Z_MSC_RDPS_WindV_IsbL-0850_RLatLon0.09_PT064H.grib2 2026-05-04 15:05 615K
20260504T12Z_MSC_RDPS_WindV_IsbL-0875_RLatLon0.09_PT064H.grib2 2026-05-04 15:05 635K
20260504T12Z_MSC_RDPS_WindV_IsbL-0900_RLatLon0.09_PT064H.grib2 2026-05-04 15:05 647K
20260504T12Z_MSC_RDPS_WindV_IsbL-0925_RLatLon0.09_PT064H.grib2 2026-05-04 15:05 655K
20260504T12Z_MSC_RDPS_WindV_IsbL-0950_RLatLon0.09_PT064H.grib2 2026-05-04 15:05 652K
20260504T12Z_MSC_RDPS_WindV_IsbL-0970_RLatLon0.09_PT064H.grib2 2026-05-04 15:05 789K
20260504T12Z_MSC_RDPS_WindV_IsbL-0985_RLatLon0.09_PT064H.grib2 2026-05-04 15:05 781K
20260504T12Z_MSC_RDPS_WindV_IsbL-1000_RLatLon0.09_PT064H.grib2 2026-05-04 15:05 774K
20260504T12Z_MSC_RDPS_WindV_IsbL-1015_RLatLon0.09_PT064H.grib2 2026-05-04 15:05 811K